{"data":{"norad_id":55655,"epoch":"2026-09-20T13:47:06.553824Z","epoch_age_seconds":96658,"freshness":"FRESH","line1":"1 55655U 23021AD  26263.57438141  .00000151  00000+0  20439-4 0  9994","line2":"2 55655  70.0011  33.1922 0003096 267.8059  92.2746 14.98330723198460","mean_motion":14.98330723,"eccentricity":0.0003096,"inclination_deg":70.0011,"raan_deg":33.1922,"arg_perigee_deg":267.8059,"mean_anomaly_deg":92.2746,"bstar":2.0439e-5,"rev_number":19846,"period_min":96.106952750511,"perigee_km":569.90187610063,"apogee_km":574.20543415428,"semimajor_km":6950.1906551275,"source":"CELESTRAK","updated_at":"2026-09-21T09:00:33.286643Z"}}